Location: Arnolds Mill
(42.3415°N, 73.5951°W)
Time: 10:23:53
(UTC+00:00)

BlueWalker 3 - Pass Details

Date: 25 June 2024
Orbit: 480 x 492 km, 53.2° (Epoch: 13 July)

Event Time Altitude Azimuth Distance (km) Brightness Sun altitude
Rises 06:28:38 0° 304° (NW) 2,539 5.7 -21.0°
Reaches altitude 10° 06:30:49 10° 301° (WNW) 1,656 4.6 -20.8°
Enters shadow 06:33:09 35° 286° (WNW) 796 2.8 -20.6°
